Starlink 6076

operational
NORAD ID: 56100 Int'l Des: 2023-046 Owner: SPXS Country: US Constellation: starlink
LEOCIRCULAR

Über Starlink 6076

Beschreibung wird geladen...

Live-Position

3D-Globus wird geladen...

Nächste Überflüge

Höhenverlauf

Altitude vs Time

uPlot chart will show altitude changes over time

Zweizeiliger Elementsatz

1 56100U 23046H 26035.20194025 .00002904 00000-0 22989-3 0 9994
2 56100 43.0054 340.9972 0001563 255.3782 104.6887 15.02543227157021
Epoch: 4. Feb. 2026 • Age: 8 hours

Aktueller Status

Höhe 565.3 km
Geschwindigkeit 7.58 km/s
Subsatellitenpunkt -26.69°S, 17.51°W
Startdatum 29. März 2023
Alter 2.8 years
Typ internet

Technische Details

Klassifizierung Payload
Masse 305.00 kg
Trockenmasse 290.00 kg
Gesamtmasse 305.00 kg
Länge 0.20 m
Durchmesser 2.80 m
Spannweite 9.00 m
Form Box + pan
Hersteller SPXS
Bus-Typ Starlink
Phasenstatus In Orbit
Besitzer/Staat SPXS/US

Große Konstellationen

Loading constellations...